TimeMST,TemperatureF,Dew PointF,Humidity,Sea Level PressureIn,VisibilityMPH,Wind Direction,Wind SpeedMPH,Gust SpeedMPH,PrecipitationIn,Events,Conditions,WindDirDegrees,DateUTC
12:57 AM,62.1,25.0,24,29.99,10.0,North,3.5,-,N/A,,Clear,360,2013-11-08 07:57:00
1:57 AM,63.0,21.9,21,29.99,10.0,NE,3.5,-,N/A,,Clear,50,2013-11-08 08:57:00
2:57 AM,60.1,25.0,26,29.99,10.0,Calm,Calm,-,N/A,,Clear,0,2013-11-08 09:57:00
3:57 AM,59.0,26.1,28,29.99,10.0,Calm,Calm,-,N/A,,Clear,0,2013-11-08 10:57:00
4:57 AM,59.0,21.9,24,29.99,10.0,Calm,Calm,-,N/A,,Clear,0,2013-11-08 11:57:00
5:57 AM,55.9,25.0,30,29.99,10.0,North,3.5,-,N/A,,Clear,10,2013-11-08 12:57:00
6:57 AM,59.0,21.0,23,29.99,10.0,NE,8.1,-,N/A,,Clear,40,2013-11-08 13:57:00
7:57 AM,61.0,23.0,23,30.00,10.0,NE,3.5,-,N/A,,Clear,50,2013-11-08 14:57:00
8:57 AM,66.0,21.0,18,30.02,10.0,NNE,6.9,-,N/A,,Clear,20,2013-11-08 15:57:00
9:57 AM,72.0,23.0,16,30.02,10.0,NE,9.2,-,N/A,,Clear,50,2013-11-08 16:57:00
10:57 AM,75.0,17.1,11,30.02,10.0,NE,8.1,-,N/A,,Clear,40,2013-11-08 17:57:00
11:57 AM,79.0,21.0,12,30.00,10.0,NE,4.6,-,N/A,,Clear,50,2013-11-08 18:57:00
12:57 PM,81.0,19.0,10,29.97,10.0,Calm,Calm,-,N/A,,Clear,0,2013-11-08 19:57:00
1:57 PM,81.0,19.9,10,29.94,10.0,Calm,Calm,-,N/A,,Clear,0,2013-11-08 20:57:00
2:57 PM,84.0,21.9,10,29.93,10.0,Variable,3.5,-,N/A,,Clear,0,2013-11-08 21:57:00
3:57 PM,82.9,23.0,11,29.91,10.0,SW,4.6,-,N/A,,Clear,220,2013-11-08 22:57:00
4:57 PM,82.0,24.1,12,29.90,10.0,Calm,Calm,-,N/A,,Clear,0,2013-11-08 23:57:00
5:57 PM,78.1,24.1,14,29.90,10.0,Calm,Calm,-,N/A,,Clear,0,2013-11-09 00:57:00
6:57 PM,73.0,28.0,19,29.92,10.0,Calm,Calm,-,N/A,,Clear,0,2013-11-09 01:57:00
7:57 PM,69.1,28.9,22,29.93,10.0,SSE,3.5,-,N/A,,Clear,160,2013-11-09 02:57:00
8:57 PM,66.9,30.9,26,29.93,10.0,Calm,Calm,-,N/A,,Clear,0,2013-11-09 03:57:00
9:57 PM,64.9,30.0,27,29.94,10.0,SSW,3.5,-,N/A,,Clear,210,2013-11-09 04:57:00
10:57 PM,60.1,28.0,30,29.95,10.0,South,6.9,-,N/A,,Clear,190,2013-11-09 05:57:00
11:57 PM,60.1,32.0,35,29.96,10.0,Calm,Calm,-,N/A,,Clear,0,2013-11-09 06:57:00